Overview Statistics Trail Chart Weather Telemetry Raw packets
 

This is the latest recevied weather packets stored in our database for station/object K8RRT. If no packets are shown the sender has not sent any weather packets the latest 10 day(s).

<< 83 84 85 86 87 88 89 >>
Time Temp. Humidity Pressure Rain* Wind** Luminosity Snow
1788004069 16.67° C 99% 1018.1 hPa 0 mm - 38 W/m² -
1788003767 16.67° C 99% 1018.2 hPa 0 mm - 32 W/m² -
1788003463 16.11° C 99% 1018 hPa 0 mm - 29 W/m² -
1788003162 16.11° C 99% 1018.1 hPa 0 mm - 24 W/m² -
1788002857 16.11° C 99% 1018 hPa 0 mm - 22 W/m² -
1788002552 16.11° C 99% 1017.9 hPa 0 mm - 18 W/m² -
1788002247 15.56° C 99% 1017.9 hPa 0 mm - 14 W/m² -
1788001941 15.56° C 99% 1017.9 hPa 0 mm - 10 W/m² -
1788001637 15.56° C 99% 1017.6 hPa 0 mm - 8 W/m² -
1788001336 15.56° C 99% 1017.8 hPa 0 mm - 5 W/m² -
1788001031 15.56° C 99% 1017.8 hPa 0 mm - 2 W/m² -
1788000726 15.56° C 99% 1017.7 hPa 0 mm - 0 W/m² -
1788000421 15.56° C 99% 1017.6 hPa 0 mm - 0 W/m² -
1788000115 15.56° C 99% 1017.8 hPa 0 mm - 0 W/m² -
1787999812 15.56° C 99% 1017.5 hPa 0 mm - 0 W/m² -
1787999509 15.56° C 99% 1017.7 hPa 0 mm - 0 W/m² -
1787999204 15.56° C 99% 1017.7 hPa 0 mm - 0 W/m² -
1787998899 15.56° C 99% 1017.5 hPa 0 mm - 0 W/m² -
1787998597 16.11° C 99% 1017.6 hPa 0 mm - 0 W/m² -
1787998291 15.56° C 99% 1017.5 hPa 0 mm - 0 W/m² -
1787997986 15.56° C 99% 1017.7 hPa 0 mm - 0 W/m² -
1787997680 16.11° C 99% 1017.4 hPa 0 mm - 0 W/m² -
1787997378 16.11° C 99% 1017.2 hPa 0 mm - 0 W/m² -
1787997072 16.11° C 99% 1017.5 hPa 0 mm - 0 W/m² -
1787996768 16.11° C 99% 1017.2 hPa 0 mm - 0 W/m² -

* Rain latest hour (hover to see other rain measurements)
** Current wind speed in m/s (hover to see current wind gust speed)